Orbital Elements at Epoch 2459200.5 (2020-Dec-17.0) TDB
Reference: JPL 31 (heliocentric ecliptic J2000)
Element | Value | Uncertainty (1-sigma) | Units |
e | .08255886221790629 | 3.6551e-08 | |
a | 2.673372357579123 | 1.0802e-08 | au |
q | 2.452661777452589 | 9.6553e-08 | au |
i | 2.768393455292179 | 3.8243e-06 | deg |
node | 23.78099107559981 | 7.0248e-05 | deg |
peri | 339.1710111361606 | 7.2957e-05 | deg |
M | 132.7338730718824 | 2.0005e-05 | deg |
tp | 2458611.836819148618 (2019-May-08.33681915) | 8.7903e-05 | TDB |
period | 1596.56868440607 4.37 | 9.6766e-06 2.649e-08 | d yr |
n | .2254835657971842 | 1.3666e-09 | deg/d |
Q | 2.894082937705657 | 1.1694e-08 | au |
|
| | Orbit Determination Parameters
Additional Information
|